Weather History for KOCH - December, 2012

Change the Weather History Date:

Saturday, December 29, 2012

  Actual Average Record
Temperature  
Mean Temperature 36 °F -  
Max Temperature 46 °F 56 °F 75 °F (1996)
Min Temperature 26 °F 35 °F 26 °F (2012)
Degree Days  
Heating Degree Days 29    
Moisture  
Dew Point 21 °F    
Average Humidity 60    
Maximum Humidity 86    
Minimum Humidity 34    
Precipitation  
Precipitation 0.00 in - - ()
Sea Level Pressure  
Sea Level Pressure 30.35 in    
Wind  
Wind Speed 9 mph (NNW)    
Max Wind Speed 17 mph    
Max Gust Speed 22 mph    
Visibility 10 miles    
Events      
Averages and records for this station are not official NWS values.
T = Trace of Precipitation, MM = Missing Value Source: NWS Daily Summary

Daily Weather History Graph

Daily Weather History Graph

Search for Another Location

Airport or City:

Trip Planner

Search our weather history database for the weather conditions in past years. The results will help you decide how hot, cold, wet, or windy it might be!

Date:

Astronomy

Dec. 29, 2012 Rise Set
Actual Time 7:17 AM CST 5:24 PM CST
Civil Twilight 6:50 AM CST 5:51 PM CST
Nautical Twilight 6:20 AM CST 6:21 PM CST
Astronomical Twilight 5:50 AM CST 6:51 PM CST
Moon 6:52 PM CST (12/29) 7:57 AM CST (12/29)
Length of Visible Light 11h 00m
Length of Day
10h 07m
Full, 98% of the Moon is Illuminated
Dec 29
Full
Jan 4
Last Quarter
Jan 11
New
Jan 18
First Quarter
Jan 26
Full

Hourly Weather History & Observations

Time (CST) Temp. Windchill Dew Point Humidity Pressure Visibility Wind Dir Wind Speed Gust Speed Precip Events Conditions
12:15 AM 37.4 °F 29.8 °F 28.4 °F 70% 30.18 in 10.0 mi North 11.5 mph - N/A   Overcast
12:35 AM 37.4 °F 30.3 °F 26.6 °F 65% 30.18 in 10.0 mi North 10.4 mph - N/A   Overcast
12:55 AM 37.4 °F 28.9 °F 26.6 °F 65% 30.19 in 10.0 mi North 13.8 mph 18.4 mph N/A   Overcast
1:15 AM 35.6 °F 28.0 °F 26.6 °F 70% 30.19 in 10.0 mi NNW 10.4 mph - N/A   Mostly Cloudy
1:35 AM 33.8 °F 27.7 °F 26.6 °F 75% 30.20 in 10.0 mi NNW 6.9 mph - N/A   Partly Cloudy
1:55 AM 33.8 °F 28.6 °F 24.8 °F 70% 30.21 in 10.0 mi NNW 5.8 mph - N/A   Scattered Clouds
2:15 AM 33.8 °F 25.3 °F 26.6 °F 75% 30.22 in 10.0 mi NNW 11.5 mph - N/A   Partly Cloudy
2:35 AM 32.0 °F 25.6 °F 24.8 °F 75% 30.23 in 10.0 mi NNW 6.9 mph - N/A   Clear
2:55 AM 30.2 °F 22.6 °F 24.8 °F 80% 30.23 in 10.0 mi NW 8.1 mph - N/A   Clear
3:15 AM 30.2 °F 21.9 °F 24.8 °F 80% 30.24 in 10.0 mi NNW 9.2 mph - N/A   Clear
3:35 AM 30.2 °F 22.6 °F 24.8 °F 80% 30.25 in 10.0 mi NW 8.1 mph - N/A   Clear
3:55 AM 30.2 °F 21.9 °F 23.0 °F 75% 30.25 in 10.0 mi NNW 9.2 mph - N/A   Clear
4:15 AM 30.2 °F 21.9 °F 23.0 °F 75% 30.25 in 10.0 mi NNW 9.2 mph - N/A   Clear
4:35 AM 30.2 °F 22.6 °F 23.0 °F 75% 30.25 in 10.0 mi NNW 8.1 mph - N/A   Clear
4:55 AM 28.4 °F 22.2 °F 21.2 °F 74% 30.26 in 10.0 mi NNW 5.8 mph - N/A   Clear
5:15 AM 28.4 °F 22.2 °F 21.2 °F 74% 30.26 in 10.0 mi NNW 5.8 mph - N/A   Clear
5:35 AM 28.4 °F 22.2 °F 19.4 °F 69% 30.28 in 10.0 mi NW 5.8 mph - N/A   Clear
5:55 AM 28.4 °F 22.2 °F 19.4 °F 69% 30.28 in 10.0 mi NNW 5.8 mph - N/A   Clear
6:15 AM 28.4 °F 21.2 °F 19.4 °F 69% 30.29 in 10.0 mi NNW 6.9 mph - N/A   Clear
6:35 AM 28.4 °F 20.4 °F 19.4 °F 69% 30.30 in 10.0 mi NNW 8.1 mph - N/A   Clear
6:55 AM 30.2 °F 22.6 °F 19.4 °F 64% 30.30 in 10.0 mi NNW 8.1 mph - N/A   Clear
7:15 AM 30.2 °F 22.6 °F 17.6 °F 60% 30.32 in 10.0 mi NNW 8.1 mph - N/A   Clear
7:35 AM 30.2 °F 20.2 °F 17.6 °F 60% 30.32 in 10.0 mi North 12.7 mph - N/A   Clear
7:55 AM 30.2 °F 21.3 °F 17.6 °F 60% 30.34 in 10.0 mi NNW 10.4 mph 16.1 mph N/A   Clear
8:15 AM 32.0 °F 23.6 °F 17.6 °F 55% 30.35 in 10.0 mi North 10.4 mph - N/A   Clear
8:35 AM 32.0 °F 21.6 °F 17.6 °F 55% 30.36 in 10.0 mi North 15.0 mph - N/A   Clear
8:55 AM 33.8 °F 25.8 °F 17.6 °F 52% 30.37 in 10.0 mi NNW 10.4 mph 17.3 mph N/A   Clear
9:15 AM 35.6 °F 26.2 °F 17.6 °F 48% 30.39 in 10.0 mi North 15.0 mph - N/A   Clear
9:35 AM 35.6 °F 26.6 °F 17.6 °F 48% 30.40 in 10.0 mi North 13.8 mph 20.7 mph N/A   Clear
9:55 AM 37.4 °F 29.3 °F 17.6 °F 45% 30.41 in 10.0 mi North 12.7 mph 20.7 mph N/A   Clear
10:15 AM 37.4 °F 27.8 °F 17.6 °F 45% 30.42 in 10.0 mi North 17.3 mph 21.9 mph N/A   Clear
10:35 AM 39.2 °F 30.8 °F 17.6 °F 42% 30.42 in 10.0 mi NNW 15.0 mph 19.6 mph N/A   Clear
10:55 AM 39.2 °F 30.5 °F 17.6 °F 42% 30.41 in 10.0 mi North 16.1 mph - N/A   Clear
11:15 AM 41.0 °F 32.5 °F 17.6 °F 39% 30.40 in 10.0 mi North 17.3 mph 20.7 mph N/A   Clear
11:35 AM 42.8 °F 36.2 °F 17.6 °F 36% 30.40 in 10.0 mi North 12.7 mph - N/A   Clear
11:55 AM 44.6 °F 38.8 °F 19.4 °F 37% 30.39 in 10.0 mi NNW 11.5 mph - N/A   Clear
12:15 PM 44.6 °F 38.4 °F 19.4 °F 37% 30.38 in 10.0 mi NNW 12.7 mph - N/A   Clear
12:35 PM 44.6 °F 38.4 °F 19.4 °F 37% 30.38 in 10.0 mi North 12.7 mph 18.4 mph N/A   Clear
12:55 PM 46.4 °F 40.4 °F 19.4 °F 34% 30.37 in 10.0 mi North 13.8 mph 17.3 mph N/A   Clear
1:15 PM 44.6 °F 37.8 °F 17.6 °F 34% 30.37 in 10.0 mi North 15.0 mph - N/A   Clear
1:35 PM 46.4 °F 41.1 °F 19.4 °F 34% 30.36 in 10.0 mi NNW 11.5 mph - N/A   Clear
1:55 PM 46.4 °F 41.1 °F 19.4 °F 34% 30.36 in 10.0 mi NW 11.5 mph - N/A   Clear
2:15 PM 46.4 °F 41.5 °F 19.4 °F 34% 30.36 in 10.0 mi NNW 10.4 mph - N/A   Clear
2:35 PM 46.4 °F 40.1 °F 19.4 °F 34% 30.37 in 10.0 mi NNW 15.0 mph - N/A   Clear
2:55 PM 46.4 °F 41.9 °F 19.4 °F 34% 30.37 in 10.0 mi NNW 9.2 mph - N/A   Clear
3:15 PM 46.4 °F 41.5 °F 19.4 °F 34% 30.37 in 10.0 mi North 10.4 mph - N/A   Clear
3:35 PM 46.4 °F 40.7 °F 19.4 °F 34% 30.37 in 10.0 mi NNW 12.7 mph - N/A   Clear
3:55 PM 46.4 °F 41.5 °F 21.2 °F 37% 30.37 in 10.0 mi NNW 10.4 mph - N/A   Clear
4:15 PM 46.4 °F 41.9 °F 19.4 °F 34% 30.38 in 10.0 mi North 9.2 mph - N/A   Clear
4:35 PM 44.6 °F 40.2 °F 19.4 °F 37% 30.39 in 10.0 mi NW 8.1 mph - N/A   Clear
5:15 PM 41.0 °F 37.1 °F 19.4 °F 42% 30.39 in 10.0 mi NNW 5.8 mph - N/A   Clear
5:35 PM 39.2 °F - 21.2 °F 49% 30.39 in 10.0 mi Calm Calm - N/A   Clear
5:55 PM 35.6 °F 32.8 °F 23.0 °F 60% 30.40 in 10.0 mi North 3.5 mph - N/A   Clear
6:15 PM 35.6 °F - 24.8 °F 65% 30.40 in 10.0 mi North - - N/A   Clear
6:35 PM 35.6 °F - 24.8 °F 65% 30.41 in 10.0 mi Calm Calm - N/A   Clear
6:55 PM 35.6 °F - 24.8 °F 65% 30.42 in 10.0 mi Calm Calm - N/A   Clear
7:15 PM 33.8 °F - 23.0 °F 65% 30.43 in 10.0 mi Calm Calm - N/A   Clear
7:35 PM 33.8 °F - 23.0 °F 65% 30.43 in 10.0 mi Calm Calm - N/A   Clear
7:55 PM 32.0 °F - 23.0 °F 69% 30.43 in 10.0 mi North - - N/A   Clear
8:15 PM 32.0 °F - 24.8 °F 75% 30.44 in 10.0 mi Calm Calm - N/A   Clear
8:35 PM 30.2 °F - 23.0 °F 75% 30.44 in 10.0 mi Calm Calm - N/A   Clear
8:55 PM 30.2 °F - 24.8 °F 80% 30.44 in 10.0 mi Calm Calm - N/A   Clear
9:15 PM 28.4 °F - 24.8 °F 86% 30.44 in 10.0 mi Calm Calm - N/A   Clear
9:35 PM 28.4 °F - 23.0 °F 80% 30.45 in 10.0 mi Calm Calm - N/A   Clear
9:55 PM 28.4 °F - 23.0 °F 80% 30.45 in 10.0 mi Calm Calm - N/A   Clear
10:15 PM 28.4 °F - 24.8 °F 86% 30.46 in 10.0 mi Calm Calm - N/A   Clear
10:35 PM 28.4 °F - 23.0 °F 80% 30.46 in 10.0 mi Calm Calm - N/A   Clear
10:55 PM 26.6 °F - 21.2 °F 80% 30.46 in 10.0 mi Calm Calm - N/A   Clear
11:15 PM 26.6 °F - 23.0 °F 86% 30.46 in 10.0 mi Calm Calm - N/A   Clear
11:35 PM 26.6 °F - 21.2 °F 80% 30.45 in 10.0 mi Calm Calm - N/A   Clear
11:55 PM 26.6 °F - 21.2 °F 80% 30.45 in 10.0 mi Calm Calm - N/A   Clear